Regional Weather Roundup
Issued by NWS Pendleton, OR

Home | Current Version | Previous Version | Text Only | Print | Product List | Glossary On
Versions: 1 2 3 4 5 6 7 8 9 10 11 12 13 14 15 16 17 18 19 20 21 22 23 24 25 26 27 28 29 30 31 32 33 34 35 36 37 38 39 40 41 42 43 44 45 46 47 48 49 50
000
ASUS46 KPDT 241804
RWRPDT
PENDLETON REGIONAL WEATHER ROUNDUP
NATIONAL WEATHER SERVICE PENDLETON OREGON
1100 AM PDT FRI OCT 24 2014

NOTE: FAIR INDICATES FEW OR NO CLOUDS BELOW 12,000 FEET WITH NO
SIGNIFICANT WEATHER AND/OR OBSTRUCTIONS TO VISIBILITY.

# INDICATES UNOFFICIAL STATION AND DATA

WAZ520-241910-
EAST SLOPES OF WASHINGTON CASCADES

CITY            SKY/WX      TMP DP  RH  WIND    PRES   REMARKS
#BULLFROG       N/A         41  41  100 CALM    N/A
#BULLFROG 2SW   N/A         65  46  50  CALM    29.65R
#BUMPING DAM    N/A         38  N/A N/A CALM    N/A
#CLE ELUM HS    N/A         44  41  89  CALM    30.03S
#CLE ELUM 2NW   N/A         42  40  93  CALM    N/A
#CLE ELUM LAKE  N/A         42  41  96  CALM    30.07S
#CLIFFDEL 2NW   N/A         37  36  96  SW1     N/A
#EASTON DOT     N/A         42  37  82  CALM    N/A
#ELK HTS DOT    N/A         41  41  100 CALM    N/A
#GLENWOOD       N/A         44  44  100 CALM    30.06F
#MANASTASH CYN  N/A         43  36  76  CALM    30.02F
#NELSON         N/A         42  41  96  CALM    30.11F
#NELSON 3SW     N/A         40  39  96  CALM    30.30S
#NILE           N/A         41  38  89  W2      29.35S
#PEOH POINT     N/A         40  37  89  E2      N/A
#RONALD 2NW     N/A         43  41  93  CALM    29.92S
#SNOWDEN        N/A         46  43  89  CALM    N/A
#SOUTH BLEWITT  N/A         40  40  100 CALM    N/A
#TEANAWAY 4NE   N/A         42  42  100 SW2     N/A
#TROUT LAKE 1NE N/A         45  44  96  CALM    30.06F
$$

WAZ521-241910-
SIMCOE HIGHLANDS

CITY            SKY/WX      TMP DP  RH  WIND    PRES   REMARKS
#BICKLETON HS   N/A         48  38  68  CALM    30.15S
#SATUS PASS DOT N/A         47  38  71  CALM    N/A
#CENTERVILLE 4W N/A         50  46  86  E1      29.79F
#CENTERVILLE 1SWN/A         46  43  89  CALM    30.04S
#GOLDENDALE     N/A         49  45  86  N1      N/A
#GOLDENDALE 1NE N/A         51  46  83  CALM    N/A
#GOLDENDALE 1S  N/A         51  45  80  E2      30.02S
#GOLDENDALE 5WNWN/A         48  44  86  CALM    30.04F
#GOODNOE HILLS  N/A         55  48  77  E2      29.98F
#LYLE 6NE       N/A         46  44  93  N2      30.02F
$$

WAZ026-241910-
KITTITAS VALLEY

CITY            SKY/WX      TMP DP  RH  WIND    PRES   REMARKS
ELLENSBURG AP   MOCLDY      48  39  71  CALM    30.08S
6HR MIN TEMP:   38; 6HR MAX TEMP:   48;

#ELLENSBURG CWU N/A         45  40  82  N2      30.05F
#ELLENSBURG 3NE N/A         43  40  89  CALM    30.07F
#ELLENSBURG     N/A         49  45  86  CALM    N/A
#KITTITAS 3S    N/A         43  41  93  CALM    30.08F
#MANASTASH RDG  N/A         43  43  100 N2      N/A
#ROCKY CYN DOT  N/A         44  44  100 NW1     N/A
#RYEGRASS DOT   N/A         41  40  96  W7      N/A
#THORP 6N       N/A         43  40  89  CALM    30.11S
$$

WAZ027-241910-
YAKIMA VALLEY

CITY            SKY/WX      TMP DP  RH  WIND    PRES   REMARKS
SUNNYSIDE AP    CLOUDY      48  43  83  CALM    30.08S
YAKIMA AIRPORT  CLOUDY      49  40  71  VRB3    30.08F
6HR MIN TEMP:   39; 6HR MAX TEMP:   49;

YAKIMA-VAGABOND CLOUDY      47  40  76  VRB1    30.08F
#COWICHE 1N     N/A         46  40  79  N2      30.21S
#DONALD 2NE     N/A         53  40  61  SW1     30.40R
#GRANDVIEW      N/A         48  42  80  CALM    30.09S
#MABTON         N/A         49  44  83  NW1     30.07S
#MOXEE 2E       N/A         48  36  63  CALM    30.01F
#NACHES 2SW     N/A         47  41  79  NE1     30.06F
#PARKER DOT     N/A         50  40  68  S5      N/A
#SELAH 8E       N/A         46  40  79  CALM    N/A
#TERRACE HTS    N/A         46  42  86  CALM    30.05S
#TOPPENISH      N/A         49  42  77  CALM    30.00S
#I82 S UMTANUM RN/A         46  37  71  SW2     N/A
#UNION GAP DOT  N/A         47  40  76  N1      N/A
#WAPATO 4NE     N/A         53  40  61  SW1     30.40R
#WEST VALLEY    N/A         46  40  79  N3      30.07F
#W YAKIMA       N/A         47  40  76  W2      30.08F
#WHITE SWAN 5E  N/A         50  43  77  CALM    30.08F
#WILEY CITY 3W  N/A         46  32  58  CALM    29.96S
#ZILLAH DOT     N/A         48  42  80  SW1     N/A
$$

WAZ028-241910-
LOWER COLUMBIA BASIN...WASHINGTON

CITY            SKY/WX      TMP DP  RH  WIND    PRES   REMARKS
PASCO           CLOUDY      54  49  83  CALM    30.08S
6HR MIN TEMP:   45; 6HR MAX TEMP:   54;

PROSSER AWOS    N/A         52  45  77  SW8     30.11S
RICHLAND AWOS   MOCLDY      54  46  74  N3      30.08F
#BASIN CITY 5SW N/A         53  48  83  CALM    30.08S
#BENTON CITY    N/A         54  46  74  CALM    29.98S
#CONNELL 5N     N/A         52  46  80  NE2     30.08F
#CONNELL 5NW    N/A         51  46  83  E1      30.04S
#ELTOPIA        N/A         55  50  83  CALM    30.04S
#ELTOPIA 6NW    N/A         54  46  74  CALM    29.04S
#KENNEWICK      N/A         65  46  50  CALM    29.65R
#KENNEWICK 3S   N/A         53  48  83  CALM    30.08S
#PASCO-BROADMOORN/A         56  49  77  CALM    29.97S
#PATERSON       N/A         52  48  86  CALM    30.05F
#PROSSER DOT    N/A         49  44  83  SW2     N/A
#PROSSER        N/A         49  41  74  NW2     30.07S
#SAGEMOOR 2W    N/A         53  49  86  CALM    29.92F
#TOUCHET 2S     N/A         52  49  89  CALM    30.04F
#WEST PASCO     N/A         55  48  77  CALM    30.10S
$$

WAZ029-241910-
FOOTHILLS OF THE BLUES...WASHINGTON

CITY            SKY/WX      TMP DP  RH  WIND    PRES   REMARKS
WALLA WALLA AP  CLOUDY      58  48  69  N3      30.05F
6HR MIN TEMP:   50; 6HR MAX TEMP:   58; 6HR PCP:  TRACE;

#LOWDEN 2SE     N/A         53  50  89  CALM    30.03F
#PLEASANT VIEW 1N/A         51  45  80  CALM    30.11F
#PRESCOTT       N/A         55  50  83  CALM    30.06F
#WHITMAN COLLEGEN/A         55  49  80  SE2     30.09F
#WAITSBURG 8N   N/A         58  38  47  CALM    30.03R
#WALLA WALLA 5E N/A         57  47  69  CALM    N/A
#WALLA WALLA U  N/A         56  51  83  CALM    30.05F
#WHITMAN MISSIONN/A         54  52  93  CALM    30.06F
$$

WAZ030-241910-
BLUE MOUNTAINS...WASHINGTON

CITY            SKY/WX      TMP DP  RH  WIND    PRES   REMARKS
$$

ORZ009-041-WAZ024-241910-
COLUMBIA RIVER GORGE

CITY            SKY/WX      TMP DP  RH  WIND    PRES   REMARKS
HOOD RIVER AP   MOCLDY      50  48  93  CALM    30.06F
THE DALLES AP   CLOUDY      51  46  83  CALM    30.06F
6HR MIN TEMP:   45; 6HR MAX TEMP:   51;

#ARLINGTON AIRPON/A         52  46  80  CALM    29.99S
#ARLINGTON HS   N/A         53  46  77  CALM    29.99F
#CELILO DOT     N/A         52  46  80  S7      N/A
#LYLE           N/A         51  48  89  CALM    30.07F
#MARYHILL       N/A         49  47  93  CALM    N/A
#MARYHILL 2W    N/A         50  50  100 E1      N/A
#MOSIER 1S      N/A         50  48  93  CALM    N/A
#MURDOCK        N/A         52  50  93  SE1     30.07F
#RUFUS DOT      N/A         N/A N/A N/A CALM    N/A

$$

ORZ510-241910-
NORTH CENTRAL OREGON

CITY            SKY/WX      TMP DP  RH  WIND    PRES   REMARKS
#CHENOWITH 1W   N/A         48  45  89  SE3     N/A
#COW CYN RST AREN/A         48  42  80  E5      N/A
#DUFUR 9E       N/A         46  42  86  CALM    30.10R
#GRASS VALLEY   N/A         52  41  66  NE3     N/A
#GRASS VALLEY 1SN/A         52  42  69  CALM    30.05F
#KENT DOT       N/A         49  35  58  E2      N/A
#MAUPIN SCHOOL  N/A         50  42  74  CALM    28.93F
#MORO SCHOOL    N/A         51  46  83  CALM    30.06S
#SHANIKO 5WSW   N/A         48  36  63  E8      N/A
#SHANIKO 4NW    N/A         48  42  80  SE8     30.03S
#TYGH VALLEY 2NEN/A         49  43  80  CALM    30.04F
#WAPANITIA AIRPON/A         49  42  77  CALM    30.05F
#WASCO DOT      N/A         52  44  74  NW2     N/A
#WASCO 5NE      N/A         50  45  83  CALM    30.06S
$$

ORZ511-241910-
CENTRAL OREGON

CITY            SKY/WX      TMP DP  RH  WIND    PRES   REMARKS
BEND AIRPORT    LGT RAIN    46  45  96  SE6     30.03F
MADRAS AIRPORT  LGT DRIZZLE 46  43  89  CALM    30.05F
PRINEVILLE AP   LGT RAIN    48  45  89  E5      30.03F
REDMOND AIRPORT LGT RAIN    49  42  77  SE7     30.01F
6HR MIN TEMP:   45; 6HR MAX TEMP:   49; 6HR PCP:  0.01;

#BEND 6E        N/A         46  42  86  CALM    29.97F
#BEND 1SW       N/A         44  43  96  CALM    N/A
#BEND-KIM LN    N/A         46  44  93  CALM    29.98F
#CROOKED RVR RANN/A         49  45  86  CALM    30.00F
#CULVER         N/A         47  42  83  CALM    29.99F
#LAKE BILLY CHINN/A         47  39  74  CALM    30.09F
#POWELL BUTTE 3EN/A         48  44  86  E5      N/A
#POWELL BUTTE   N/A         47  42  83  SE3     29.65F
#PRINEVILLE 3N  N/A         49  45  86  NE5     29.96F
#WARM SPRINGS   N/A         49  42  77  CALM    30.02S


ORZ509-241910-
EAST SLOPES OF OREGON CASCADES

CITY            SKY/WX      TMP DP  RH  WIND    PRES   REMARKS
#CAMP SHERMAN   N/A         44  42  93  CALM    30.05F
#LA PINE DOT    N/A         43  42  96  S1      N/A
#LA PINE 4NW    N/A         42  39  89  CALM    30.04F
#LAVA BUTTE DOT N/A         42  41  96  CALM    N/A
#SISTERS AIRPOR N/A         46  46  100 N2      29.91S
#SISTERS ODOT   N/A         46  N/A N/A CALM    N/A
#SISTERS 3N     N/A         48  43  83  N3      30.01F
#SUNRIVER       N/A         44  43  96  CALM    29.89F
#SUNRIVER AP    N/A         43  41  93  CALM    29.97F
#SUTTLE LK DOT  N/A         39  39  100 W12     N/A    WCI 32
#TUMALO 3W      N/A         45  43  93  SE2     29.89F
#WANOGA BUTTE D N/A         36  36  100 W7      N/A

$$

ORZ044-241910-
LOWER COLUMBIA BASIN...OREGON

CITY            SKY/WX      TMP DP  RH  WIND    PRES   REMARKS
HERMISTON       MOCLDY      53  48  83  CALM    30.06F
6HR MIN TEMP:   47; 6HR MAX TEMP:   53;

#BOARDMAN SCHOOLN/A         53  47  80  CALM    30.06F
#BOARDMAN 3W    N/A         54  50  86  NE3     29.79S
#BOARDMAN 8SW   N/A         52  47  83  W2      30.06F
#ECHO 8SW       N/A         53  45  74  CALM    30.03S
#IONE SCHOOL    N/A         51  40  66  CALM    30.04S
#IRRIGON 4NW    N/A         53  50  89  N1      N/A
#UMATILLA SCHOOLN/A         52  52  100 CALM    30.08F
#UMATILLA       N/A         53  47  80  CALM    30.04F
$$

ORZ507-241910-
NORTHERN FOOTHILLS OF THE BLUES

CITY            SKY/WX      TMP DP  RH  WIND    PRES   REMARKS
PENDLETON AIRPT MOCLDY      52  47  83  CALM    30.05F
6HR MIN TEMP:   46; 6HR MAX TEMP:   52; 6HR PCP:  TRACE;

#ADAMS 3WNW     N/A         53  48  83  CALM    30.04F
#ATHENA         N/A         54  50  86  CALM    30.07F
#CAYUSE         N/A         53  48  83  E2      30.03F
#HELIX SCHOOL   N/A         52  49  89  CALM    30.04F
#HELIX 3N       N/A         53  45  74  N3      30.02F
#HELIX 6SW      N/A         53  48  83  E6      30.04F
#HOLDMAN 5SE    N/A         54  49  83  CALM    30.05F
#HOLDMAN 6E     N/A         53  47  80  CALM    29.86F
#M-F FERNDALE   N/A         55  52  90  CALM    30.05F
#M-F GROVE ELEM N/A         56  46  69  CALM    30.03F
#M-FREEWATER 5SEN/A         55  49  80  CALM    30.04F
#PENDLETON DNTN N/A         51  50  96  CALM    28.85F
#PDT AQUATIC CTRN/A         53  49  86  CALM    30.03F
#PDT SUNRIDGE   N/A         51  49  93  CALM    30.05F
#PENDLETON 7NW  N/A         51  46  83  E1      27.50R
#TUTUILLA       N/A         53  49  86  CALM    30.05F
#UMAPINE 2E     N/A         56  51  83  N1      30.02F
#WESTON SCHOOL  N/A         55  47  74  CALM    30.00F

$$

ORZ508-241910-
SOUTHERN FOOTHILLS OF THE BLUES

CITY            SKY/WX      TMP DP  RH  WIND    PRES   REMARKS
LEXINGTON       CLOUDY      52  46  80  N7      30.06F
#AJAX           N/A         51  38  61  CALM    29.98S
#CONDON SCHOOL  N/A         51  44  77  CALM    30.00S
#CONDON 5W      N/A         48  39  71  E7      30.01
#FOSSIL SCHOOL  N/A         51  44  77  CALM    30.01S
#HEPPNER EOC    N/A         52  43  71  E5      29.99F
#HEPPNER 4NE    N/A         52  43  71  E1      30.03F
#LEXINGTON 2SE  N/A         55  45  69  CALM    30.00F
#MIKKALO        N/A         51  42  71  CALM    30.03F
#OLEX 4N        N/A         50  44  80  CALM    30.04F
#RUGGS 5NE      N/A         53  45  74  E2      30.20S
#RUGGS 2SW      N/A         51  44  77  SE6     30.05F

$$

ORZ502-503-241910-
BLUE MOUNTAINS

CITY            SKY/WX      TMP DP  RH  WIND    PRES   REMARKS
MEACHAM         CLOUDY      48  46  93  CALM    30.07F
6HR MIN TEMP:   42; 6HR MAX TEMP:   48; 6HR PCP:  0.02;

#BATTLE MTN DOT N/A         42  42  100 S7      N/A
#HARDMAN 10S    N/A         42  41  96  SE5     30.09F
#HEPPNER 15SE   N/A         47  43  86  CALM    29.96F
#LADD CYN SMT   N/A         47  44  89  SE8     N/A
#LADD CREEK ODOTN/A         48  47  96  SW3     N/A
#N POWDER DOT   N/A         49  48  96  SE7     N/A
#PIKES PEAK     N/A         50  41  71  S8      27.99S
#TOLLGATE       N/A         42  41  96  CALM    30.00F
#TROY SCHOOL    N/A         50  48  93  CALM    29.97S
#UKIAH          N/A         45  44  96  CALM    30.09S
#WESTON 4E      N/A         49  44  83  E6      29.99F
$$

ORZ505-241910-
JOHN DAY BASIN

CITY            SKY/WX      TMP DP  RH  WIND    PRES   REMARKS
JOHN DAY        LGT RAIN    47  46  96  E3      30.09F
#JOHN DAY KJDY  N/A         51  45  80  CALM    30.21F
#DAYVILLE SCHOOLN/A         51  46  83  E3      30.04S
#MT. VERNON 5SE N/A         44  42  93  NE1     30.04F
#WINLOCK        N/A         50  45  83  NW7     30.14R
$$

ORZ506-241910-
OCHOCO AND JOHN DAY HIGHLANDS

CITY            SKY/WX      TMP DP  RH  WIND    PRES   REMARKS
#BUCK CREEK DOT N/A         46  46  100 SE9     N/A
#HORSE RIDGE DO N/A         44  41  89  E14     N/A    WCI 37
#KEYES SMT DOT  N/A         44  42  93  E8      N/A
#PAULINA SCHOOL N/A         46  43  89  CALM    30.06F
#PINE MTN OBS   N/A         36  35  96  SE14    N/A    WCI 27
#PRAIRIE CITY   N/A         45  45  100 CALM    30.14F
#SENECA         N/A         43  N/A N/A CALM    N/A
#SENECA 9NW     N/A         41  40  96  CALM    30.06S
$$

ORZ049-241910-
GRANDE RONDE VALLEY

CITY            SKY/WX      TMP DP  RH  WIND    PRES   REMARKS
LA GRANDE       MOCLDY      50  39  66  CALM    30.09F
#COVE           N/A         50  49  96  CALM    30.01F
#COVE SCHOOL    N/A         50  47  89  CALM    30.07F
#COVE 6NW       N/A         47  45  93  CALM    30.13S
#ELGIN 3N       N/A         49  48  96  CALM    29.82F
#ELGIN 1E       N/A         48  44  86  CALM    N/A
#IMBLER SCHOOL  N/A         63  35  35  SW3     29.84S
#ISLAND CITY 4N N/A         51  50  96  CALM    29.97F
#LADD CYN DOT   N/A         49  47  93  S7      N/A
#UNION 1S       N/A         53  48  83  S5      29.98F
$$

ORZ050-241910-
WALLOWA COUNTY

CITY            SKY/WX      TMP DP  RH  WIND    PRES   REMARKS
#ENTERPRISE HS  N/A         46  44  93  CALM    30.11F
#IMNAHA 10S     N/A         47  44  89  CALM    30.09F
#JOSEPH 3N      N/A         45  43  93  CALM    30.10F
#JOSEPH 3W      N/A         46  45  96  CALM    29.93F
#LOSTINE        N/A         45  44  96  CALM    29.89F
#MT HOWARD 8000 N/A         34  32  92  S1      30.11S
#PROMISE 1S     N/A         43  42  96  CALM    30.22S
#SHEEP RDG 7000 N/A         35  33  92  CALM    30.11S
#WALLOWA SCHOOL N/A         46  44  93  CALM    31.02F



$$



USA.gov is the U.S. government's official web portal to all federal, state and local government web resources and services.